#timestamp,LO_Frequency,Hit,StdDev 
1639692015.7,286046995.7,Y
1639692035.5,286047001.0,P
1639692055.4,286046999.9,N
1639692075.2,286047002.8,N
1639692095.1,286047001.7,N
1639692096.0,286047001.7,N
1639692115.8,286047004.0,N
1639692135.6,286047004.2,N
1639692155.5,286047001.6,N
1639692175.3,286047001.5,N
1639692195.1,286047002.8,N
1639692215.9,286047000.4,N
1639692235.7,286046999.6,N
1639692255.6,286046999.2,N
1639692275.4,286046998.3,N
1639692295.2,286047000.4,N
1639692315.1,286047000.1,N
1639692316.0,286047000.1,N
1639692335.8,286047000.2,N
1639692355.7,286047000.3,N
1639692375.5,286046999.7,N
1639692395.3,286046999.8,N
1639692415.2,286046999.9,N
1639692435.9,286046999.8,N
1639692485.8,286046998.9,E
1639692495.7,286046998.2,N
1639692515.5,286047000.9,P
1639692535.4,286046999.9,N
1639692555.2,286046998.4,N
1639692575.0,286046998.1,N
1639692575.9,286046998.1,N
1639692595.8,286047000.1,N
1639692615.6,286047002.8,N
1639692635.4,286046999.7,N
1639692655.3,286047002.2,N
1639692675.1,286047001.3,N
1639692695.9,286047001.7,N
1639692715.7,286047001.7,N
1639692735.5,286047002.0,N
1639692755.4,286047002.1,N
1639692775.2,286047004.4,N
1639692795.0,286047005.9,Y
1639692795.9,286047005.9,P
1639692815.8,286047003.8,N
1639692835.6,286047003.7,N
1639692855.5,286047003.2,N
1639692875.3,286047003.7,N
1639692895.1,286047003.6,N
1639692915.9,286047003.8,N
1639692935.7,286047005.6,Y
1639692955.6,286047002.3,P
1639692975.4,286047002.2,P
1639692995.2,286047000.5,N
1639693015.1,286046999.7,N
1639693016.0,286046999.7,N
1639693035.8,286047000.2,N
1639693055.6,286047000.8,N
1639693075.1,286047000.6,N
1639693095.9,286047001.0,N
1639693115.7,286047000.2,N
1639693135.6,286047000.7,N
1639693155.4,286046998.6,N
1639693175.2,286046999.0,N
1639693195.1,286047000.1,N
1639693196.0,286047000.1,N
1639693215.8,286047001.1,N
1639693235.6,286046999.0,N
1639693255.5,286046995.0,Y
1639693275.3,286046996.1,P
1639693295.2,286046994.9,N
1639693315.9,286046997.3,N
1639693335.7,286046997.9,N
1639693355.6,286046996.8,N
1639693375.4,286046997.3,N
1639693395.2,286046996.6,N
1639693415.1,286046996.8,N
1639693416.0,286046996.8,N
1639693435.8,286046999.3,N
1639693455.7,286046998.4,N
1639693475.5,286046998.2,N
1639693495.3,286046998.6,N
1639693515.2,286046996.5,N
1639693535.0,286046999.6,N
1639693535.9,286046999.6,N
1639693555.8,286046999.6,N
1639693575.6,286046996.5,N
1639693595.4,286046997.3,N
1639693615.3,286046997.8,N
1639693635.1,286046997.3,N
1639693636.0,286046997.3,N
1639693655.8,286046999.2,N
1639693675.7,286046996.7,N
1639693695.5,286046996.3,N
1639693715.4,286046996.3,N
1639693735.2,286046994.1,Y
1639693755.0,286046999.1,P
1639693755.9,286046999.1,N
1639693775.8,286046999.6,N
1639693795.6,286046998.3,N
1639693815.4,286046998.6,N
1639693835.3,286046999.0,N
1639693855.1,286047000.7,N
1639693875.9,286047000.5,N
1639693895.7,286047001.1,N
1639693915.5,286046999.9,N
1639693935.4,286047000.7,N
1639693955.2,286046997.0,N
1639693975.1,286046998.0,N
1639693976.0,286046998.0,N
1639693995.8,286046997.9,N
1639694015.6,286046994.9,Y
1639694035.5,286046995.6,P
1639694055.3,286046995.8,N
1639694075.1,286046995.8,N
1639694095.9,286046997.5,N
1639694115.7,286046999.5,N
1639694135.6,286046998.3,N
1639694155.4,286046998.5,N
1639694175.2,286047000.6,N
1639694195.1,286046998.1,N
1639694196.0,286046998.1,N
1639694215.8,286047000.6,N
1639694235.6,286046999.6,N
1639694255.5,286046997.4,N
1639694275.3,286046997.1,N
1639694295.2,286046999.3,N
1639694315.9,286047000.8,N
1639694335.7,286047001.1,N
1639694355.6,286047000.1,N
1639694375.4,286046999.9,N
1639694395.2,286046998.2,N
1639694415.1,286046997.4,N
1639694416.0,286046997.4,N
1639694435.8,286046999.4,N
1639694455.7,286046998.9,N
1639694475.5,286047001.1,N
1639694495.4,286047000.2,N
1639694515.2,286046997.0,N
1639694535.0,286046997.0,N
1639694535.9,286046997.0,N
1639694555.8,286046999.6,N
1639694575.6,286046996.8,N
1639694595.4,286046993.5,Y
1639694615.3,286046995.3,P
1639694635.1,286046997.0,N
1639694655.9,286046998.4,N
1639694675.7,286047001.2,N
1639694695.5,286046999.7,N
1639694715.4,286046999.8,N
1639694735.2,286046999.7,N
1639694755.0,286047002.5,N
1639694755.9,286047002.5,N
1639694775.8,286046998.2,N
1639694795.6,286047002.8,N
1639694815.5,286047000.2,N
1639694835.3,286047002.2,N
1639694855.1,286047004.4,N
1639694875.9,286047001.6,N
1639694895.7,286047001.9,N
1639694915.5,286047003.7,N
1639694935.4,286047004.4,N
1639694955.2,286047000.3,N
1639694975.1,286047002.8,N
1639694976.0,286047002.8,N
1639694995.8,286047002.5,N
1639695015.6,286047002.1,N
1639695035.5,286047001.4,N
1639695055.3,286047003.9,N
1639695075.2,286047001.4,N
1639695095.9,286047002.1,N
1639695115.7,286047003.2,N
1639695135.6,286047003.4,N
1639695155.4,286047004.8,N
1639695175.2,286047003.3,N
1639695195.1,286046999.8,N
1639695196.0,286046999.8,N
1639695215.8,286047000.0,N
1639695235.7,286046999.1,N
1639695255.5,286046997.6,N
1639695275.3,286046999.3,N
1639695295.2,286046998.3,N
1639695315.0,286047000.9,N
1639695315.9,286047000.9,N
1639695335.8,286046998.1,N
1639695355.6,286046996.9,N
1639695375.4,286046999.3,N
1639695395.3,286046998.8,N
1639695415.1,286046998.7,N
1639695435.9,286047000.3,N
1639695455.7,286047000.0,N
1639695475.5,286047002.3,N
1639695495.4,286047002.3,N
1639695515.2,286047000.0,N
1639695535.0,286047000.5,N
1639695535.9,286047000.5,N
1639695555.8,286046999.9,N
1639695575.6,286047003.6,N
1639695595.5,286047001.8,N
